Location: Newark
(43.0000°N, 1.6781°W)
Time: 09:58:48
(UTC+00:00)

deb Explorer IX - All Passes

Search period start: 07 October 2022 00:00
Search period end: 17 October 2022 00:00
Orbit: 532 x 1063 km, 38.8° (Epoch: 06 October)

Date Brightness Start Highest point End Pass type
(mag) Time Alt. Az. Time Alt. Az. Time Alt. Az.
07 Oct - 04:53:55 10° SW 04:57:48 31° SSE 05:02:13 10° E visible
07 Oct - 06:39:01 10° WSW 06:43:40 54° S 06:49:06 10° E daylight
07 Oct - 08:24:50 10° W 08:29:48 45° SSW 08:35:35 10° ESE daylight
07 Oct - 10:11:26 10° WSW 10:15:49 22° SSW 10:20:37 10° SSE daylight
08 Oct - 04:23:34 10° SW 04:27:16 28° SSE 04:31:23 10° E visible
08 Oct - 06:08:34 10° WSW 06:13:03 52° S 06:18:15 10° E daylight
08 Oct - 07:54:21 10° W 07:59:08 46° SSW 08:04:44 10° ESE daylight
08 Oct - 09:40:50 10° WSW 09:45:07 23° SSW 09:49:53 10° SSE daylight
09 Oct - 03:53:12 10° SSW 03:56:42 26° SSE 04:00:32 10° E visible
09 Oct - 05:38:06 10° WSW 05:42:25 50° S 05:47:23 10° E visible
09 Oct - 07:23:50 10° W 07:28:28 46° S 07:33:52 10° ESE daylight
09 Oct - 09:10:14 10° WSW 09:14:26 23° SSW 09:19:06 10° SSE daylight
10 Oct - 03:22:48 10° SSW 03:26:08 24° SSE 03:29:41 10° ESE visible
10 Oct - 05:07:37 10° WSW 05:11:47 48° S 05:16:32 10° E visible
10 Oct - 06:53:18 10° W 06:57:47 46° S 07:02:58 10° ESE daylight
10 Oct - 08:39:38 10° WSW 08:43:43 24° SSW 08:48:18 10° SSE daylight
11 Oct - 02:52:23 10° SSW 02:55:31 21° SSE 02:58:50 10° ESE visible
11 Oct - 04:37:06 10° WSW 04:41:09 46° S 04:45:41 10° E visible
11 Oct - 06:22:45 10° W 06:27:05 46° S 06:32:04 10° ESE daylight
11 Oct - 08:09:01 10° WSW 08:13:00 24° SSW 08:17:28 10° SSE daylight
12 Oct - 02:21:57 10° SSW 02:24:54 20° SSE 02:27:58 10° ESE visible
12 Oct - 04:06:32 10° WSW 04:10:29 44° S 04:14:50 10° E visible
12 Oct - 05:52:11 10° W 05:56:23 46° S 06:01:11 10° ESE daylight
12 Oct - 07:38:23 10° WSW 07:42:16 24° SSW 07:46:36 10° SSE daylight
13 Oct - 01:51:28 10° SSW 01:54:15 18° SSE 01:57:06 10° ESE night (unlit)
13 Oct - 03:35:57 10° WSW 03:39:48 42° S 03:43:58 10° E visible
13 Oct - 05:21:34 10° W 05:25:40 46° S 05:30:17 10° ESE visible
13 Oct - 07:07:44 10° WSW 07:11:31 25° SSW 07:15:44 10° SSE daylight
14 Oct - 01:20:57 10° SSW 01:23:34 17° SSE 01:26:12 10° ESE night (unlit)
14 Oct - 03:05:19 10° WSW 03:09:06 40° SSE 03:13:07 10° E visible
14 Oct - 04:50:57 10° W 04:54:56 46° S 04:59:22 10° ESE visible
14 Oct - 06:37:04 10° WSW 06:40:45 25° SSW 06:44:51 10° SSE daylight
15 Oct - 00:50:25 10° S 00:52:52 16° SSE 00:55:18 10° ESE night (unlit)
15 Oct - 02:34:38 10° WSW 02:38:22 39° SSE 02:42:16 10° E visible
15 Oct - 04:20:16 10° WSW 04:24:11 46° S 04:28:28 10° ESE visible
15 Oct - 06:06:22 10° WSW 06:09:59 26° SSW 06:13:58 10° SE daylight
16 Oct - 00:19:49 10° S 00:22:07 15° SSE 00:24:23 10° ESE night (unlit)
16 Oct - 02:03:55 10° SW 02:07:38 37° SSE 02:11:25 10° E night (unlit)
16 Oct - 03:49:32 10° WSW 03:53:25 46° S 03:57:34 10° ESE visible
16 Oct - 05:35:38 10° WSW 05:39:11 26° SSW 05:43:04 10° SE visible
16 Oct - 23:49:12 10° S 23:51:21 14° SSE 23:53:27 10° ESE night (unlit)
